Location: Cuzcurrita-R�o Tir�n
(42.5415°N, 2.9642°W)
Time: 20:15:26
(UTC+00:00)

HJ-1C - Pass Details

Date: 27 February 2020
Orbit: 434 x 445 km, 97.2° (Epoch: 30 March)

Event Time Altitude Azimuth Distance (km) Brightness Sun altitude
Rises 18:40:13 0° 143° (SE) 2,404 6.8 -8.5°
Reaches altitude 10° 18:42:24 10° 131° (SE) 1,540 5.7 -8.9°
Maximum altitude 18:45:14 27° 72° (ENE) 864 4.3 -9.4°
Drops below altitude 10° 18:48:07 10° 12° (NNE) 1,551 6.0 -9.9°
Sets 18:50:18 0° 360° (N) 2,425 7.1 -10.3°
